Other Public Products
Issued by NWS Grand Forks, ND

Home | Current Version | Previous Version | Graphics & Text | Print | Product List | Glossary On
Versions: 1 2 3 4 5 6 7 8 9 10 11 12 13 14 15 16 17 18 19 20 21 22 23 24 25 26 27 28 29 30 31 32 33 34 35 36 37 38 39 40 41 42 43 44 45 46 47 48 49 50
000
FPUS83 KFGF 220310
OPUFGF
PRAIRIE TO PINES WEATHER ROUNDUP
NATIONAL WEATHER SERVICE EASTERN NORTH DAKOTA/GRAND FORKS ND
1000 PM CDT TUE OCT 21 2014

 **SATELLITE DATA USED TO AUGMENT SKY COVER AT AUTOMATED STATIONS**
 *****  WEATHER ACROSS EASTERN NORTH DAKOTA  *****

CITY           SKY/WX    TMP DP  RH WIND       PRES   REMARKS
GRAND FORKS    PTCLDY    55  41  59 S18G32    29.86R
GRAND FORKS AF PTCLDY    56  42  59 S18G30    29.85R
GRAND CITY NWS   N/A     54 N/A N/A S30         N/A
BUXTON         NOT AVBL
DEVILS LAKE    CLEAR     61  43  51 S24G32    29.74S
FARGO          CLEAR     58  41  53 SE24G35   29.91S
WAHPETON ARPT  CLEAR     55  37  50 SE21G26   29.96S
$$

 *****  WEATHER ACROSS CENTRAL AND WESTERN NORTH DAKOTA  *****

CITY           SKY/WX    TMP DP  RH WIND       PRES   REMARKS
JAMESTOWN      CLEAR     58  43  57 SE16      29.80R
BISMARCK       CLEAR     66  41  40 SE15      29.68S
MINOT          CLEAR     59  46  62 SE9       29.59F
MINOT AFB      CLEAR     53  47  83 SE8       29.59S
GARRISON         N/A     66  50  56 S13       29.61F
WILLISTON      PTCLDY    46  40  79 CALM      29.58S
DICKINSON      CLEAR     58  45  62 S8        29.62R
HETTINGER      PTCLDY    66  44  45 S12       29.67R
$$

 *****  OTHER OBSERVATIONS NORTHEAST NORTH DAKOTA  *****

CITY           SKY/WX    TMP DP  RH WIND       PRES   REMARKS
WALHALLA         N/A     55  41  58 S16G26    29.78S
LANGDON        FAIR      55  41  58 S26G32    29.77S
CAVALIER       FAIR      55  41  58 S16G28    29.81S
GRAFTON        FAIR      54  41  62 S22G29    29.84S
CANDO          FAIR      59  45  58 S20G29    29.73S
FORT TOTTEN    NOT AVBL
ROLLA          FAIR      55  43  62 S18       29.72S
RUGBY          FAIR      63  45  51 SE18G26   29.66S
 ***** THE ABOVE OBSERVATIONS ARE NON NWS ARE NOT QUALITY
        CONTROLLED AND MAY MIS-REPORT RAIN FOR SNOW...
$$

 *****  OTHER OBSERVATIONS SOUTHEAST NORTH DAKOTA *****

CITY           SKY/WX    TMP DP  RH WIND       PRES   REMARKS
COOPERSTOWN    NOT AVBL
VALLEY CITY    FAIR      57  41  54 S18G24    29.86R
OAKES            N/A     63  46  55 SE22G29   29.86S
GWINNER        CLEAR     57  41  54 SE18      29.89S
SHEYENNE NWR     N/A     58  41  53 SE16      29.95S
BUFFALO        NOT AVBL
WYNDMERE         N/A     57  41  54 SE15        N/A
 ***** THE ABOVE OBSERVATIONS ARE NON NWS ARE NOT QUALITY
       CONTROLLED AND MAY MIS-REPORT RAIN FOR SNOW...
$$

  *****  WEATHER ACROSS NORTHERN MINNESOTA  *****

CITY           SKY/WX    TMP DP  RH WIND       PRES   REMARKS
FLAG ISLAND    CLEAR     48  39  71 SE26      29.96S
WARROAD        CLEAR     48  39  71 SE14G21   29.96S
ROSEAU         CLEAR     52  39  62 SE17      29.93S
HALLOCK        PTCLDY    54  39  58 S18       29.85S
THF RVR FALLS  CLEAR     54  37  54 SE17G29   29.93R
HALSTAD          N/A     56  37  49 SE25        N/A
FOSSTON        CLEAR     52  37  58 SE17G26   29.97S
BAUDETTE       CLEAR     45  36  70 SE12G17   30.02R
WASKISH        CLEAR     46  37  71 SE12G21   30.03S
CROOKSTON      CLEAR     55  39  54 S24G32    29.90S
$$
  *****  WEATHER ACROSS CENTRAL AND WEST MINNESOTA  *****

CITY           SKY/WX    TMP DP  RH WIND       PRES   REMARKS
BEMIDJI        CLEAR     48  38  68 SE16      30.04S
PARK RAPIDS    CLEAR     48  38  68 SE17      30.05S
WADENA         CLEAR     46  39  76 SE13      30.05S
DETROIT LAKES  CLEAR     50  41  71 SE14      30.01S
MOORHEAD       CLEAR     57  43  58 SE21G31   29.93S
FERGUS FALLS   CLEAR     54  37  54 SE21      30.00S
ELBOW LAKE     FAIR      53  40  63 SE18G25   30.00S
MORRIS MN      CLEAR     54  41  62 SE18G25   30.00S
STAPLES        CLEAR     48  37  66 SE9       30.09R
WHEATON        CLEAR     54  39  58 SE18      29.98S
$$
  *****  WEATHER ELSEWHERE ACROSS MINNESOTA  *****

CITY           SKY/WX    TMP DP  RH WIND       PRES   REMARKS
DULUTH         PTCLDY    40  36  86 E8        30.20R
INTRNTL FALLS  CLEAR     40  34  79 SE12      30.09S
ELY            CLEAR     36  34  93 SE6       30.19R
CLOQUET        CLEAR     39  36  87 E8        30.19S
BRAINERD       CLEAR     47  38  71 SE10      30.13R
HIBBING        CLEAR     35  32  88 SE10      30.17S
ALEXANDRIA     CLEAR     49  41  74 SE18      30.06S
SAINT CLOUD    CLEAR     50  38  63 SE9       30.13R
MINNEAPOLIS    CLEAR     49  38  65 SE12      30.17R
$$

  *****  WEATHER ACROSS SOUTH DAKOTA  *****

CITY           SKY/WX    TMP DP  RH WIND       PRES   REMARKS
SIOUX FALLS    CLEAR     58  42  55 SE14      30.02R
BROOKINGS      NOT AVBL
WATERTOWN      CLEAR     58  42  55 S16       29.96R
HURON          CLEAR     63  44  50 SE15G25   29.89S
SISSETON         N/A     56  42  59 S14       29.94R
ABERDEEN       CLEAR     64  45  49 S21G29    29.85S
MITCHELL       CLEAR     64  44  48 SE20      29.94R
PIERRE         PTCLDY    66  40  38 SE16      29.78R
MOBRIDGE       PTCLDY    68  40  35 SE16      29.71S
RAPID CITY     MOCLDY    62  43  49 SW8       29.76S
$$

  *****  SOME WEATHER IN NEARBY STATES *****

CITY           SKY/WX    TMP DP  RH WIND       PRES   REMARKS
GLASGOW MT     MOCLDY    55  45  68 W8        29.68R
GREAT FALLS MT CLOUDY    44  39  82 SW17      29.86R
CHEYENNE WY    CLOUDY    58  40  51 W10       29.99R
SCOTTSBLUFF NE MOCLDY    63  46  54 NW14      29.88R
OMAHA NE       CLEAR     58  40  51 S8        30.07R
DES MOINES IA  CLEAR     55  41  59 SE13      30.16R
DAVENPORT IA   CLEAR     43  36  76 E8        30.25R
CHICAGO IL     MOCLDY    46  38  73 N7        30.26S
EAU CLAIRE WI  CLEAR     42  34  73 SE3       30.24R
LA CROSSE WI   CLEAR     45  36  70 SE6       30.25R
$$

  *****  SOME NATIONAL WEATHER *****

CITY           SKY/WX    TMP DP  RH WIND       PRES   REMARKS
LA GUARDIA NY  MOCLDY    59  53  80 NE12      29.90S
RALEIGH NC     MOCLDY    59  40  49 VRB6      29.95R
ATLANTA GA     CLEAR     60  47  61 NW8       30.02R
NEW ORLEANS LA CLEAR     67  57  70 S5        30.03R
OKLAHOMA CITY  CLEAR     65  57  75 S5        30.07R
ALBUQUERQUE NM PTCLDY    57  47  69 SE7       30.10R
SALT LAKE CITY MOCLDY    52  33  48 NW3       30.05R
LOS ANGELES CA CLEAR     67  64  90 W7        29.86R
BOISE ID       CLEAR     50  41  71 SE8       30.05R
SEATTLE WA     CLOUDY    59  46  62 S12       29.84F
$$

*** WEATHER ACROSS MANITOBA...SASKATCHEWAN AND ONTARIO ***
                ***ONTARIO***

CITY           SKY/WX    TMP DP  RH WIND       PRES   REMARKS
GERALDTON      CLEAR     30  28  93 S3        30.28R
THUNDER BAY    CLEAR     27  27 100 CALM      30.29R
SIOUX LOOKOUT  CLEAR     39  34  81 S10G18    30.10F
TORONTO        LGT RAIN  43  39  87 N14G22    30.16R
BIG TROUT LK   CLEAR     43  36  75 S16G23    29.97F
PICKLE LAKE    NOT AVBL
DRYDEN         CLEAR     39  34  81 S15G23    30.06F
KENORA         PTCLDY    45  36  70 S15G23    29.99S
$$
                *** MANITOBA***

CITY           SKY/WX    TMP DP  RH WIND       PRES   REMARKS
BRANDON        PTCLDY    57  43  58 SE10      29.68S
DAUPHIN        CLEAR     48  41  76 CALM      29.66S
ISLAND LAKE    CLEAR     46  37  71 S12G18    29.82R
PILOT MOUND      N/A     57  41  54 S25G31      N/A
THE PAS        CLEAR     46  41  81 S13       29.58R
THOMPSON       CLEAR     48  41  76 S9G17     29.63R
WINNIPEG       CLEAR     54  39  58 SE23G33   29.81F
LYNN LAKE      CLEAR     41  39  93 SE2       29.53S
CHURCHILL      CLOUDY    39  37  93 SW3       29.63R
GILLAM         CLEAR     50  39  66 S12       29.67R
$$
                ***SASKATCHEWAN***

CITY           SKY/WX    TMP DP  RH WIND       PRES   REMARKS
ESTEVAN        PTCLDY    48  41  76 E10       29.58F
KINDERSLEY     CLOUDY    52  43  71 NW12      29.65R
LLOYDMINSTER   MOCLDY    48  37  66 W7        29.68R
PRINCE ALBERT  CLOUDY    57  43  58 E3        29.56R
REGINA         MOCLDY    54  45  71 SE13      29.57S



USA.gov is the U.S. government's official web portal to all federal, state and local government web resources and services.